QPF
0.14 0.15 0.13 0.15 0.14 0.12 0.13 0.17 0.17 0.14 0.08 0.07 0.05 0.02 0.02 0.01 0.01 0.02 0.03 0.02 0.01 0.01 0.01 0.00 0.01 0.03 0.03 0.03 0.03 0.03 0.03 0.03 0.03 0.02 0.02 0.05 0.05 0.05 0.04 0.04 0.03 0.03 0.04
0.09 0.12 0.12 0.13 0.12 0.10 0.10 0.13 0.15 0.13 0.07 0.06 0.04 0.02 0.02 0.02 0.01 0.02 0.05 0.04 0.02 0.00 0.00 0.00 0.00 0.01 0.02 0.03 0.02 0.02 0.02 0.03 0.03 0.03 0.04 0.04 0.04 0.03 0.04 0.04 0.04 0.03 0.03
0.07 0.09 0.08 0.09 0.11 0.11 0.12 0.11 0.11 0.11 0.08 0.06 0.04 0.03 0.05 0.04 0.03 0.03 0.07 0.09 0.03 0.02 0.01 0.00 0.01 0.01 0.02 0.03 0.03 0.02 0.02 0.03 0.03 0.04 0.04 0.04 0.03 0.02 0.03 0.03 0.03 0.03 0.03
0.07 0.10 0.10 0.11 0.14 0.16 0.16 0.12 0.10 0.08 0.06 0.05 0.06 0.05 0.05 0.05 0.04 0.05 0.04 0.07 0.07 0.04 0.02 0.01 0.01 0.02 0.03 0.03 0.03 0.03 0.03 0.03 0.03 0.03 0.03 0.03 0.03 0.02 0.02 0.03 0.03 0.03 0.03
0.10 0.11 0.14 0.16 0.16 0.18 0.19 0.14 0.11 0.08 0.06 0.05 0.03 0.06 0.05 0.04 0.05 0.04 0.05 0.05 0.05 0.04 0.04 0.04 0.01 0.02 0.03 0.03 0.03 0.03 0.04 0.05 0.04 0.03 0.03 0.03 0.03 0.02 0.02 0.03 0.02 0.02 0.02
0.10 0.12 0.13 0.13 0.12 0.13 0.15 0.13 0.12 0.10 0.07 0.05 0.04 0.06 0.05 0.03 0.04 0.04 0.04 0.05 0.03 0.03 0.04 0.04 0.05 0.04 0.03 0.03 0.04 0.04 0.05 0.05 0.04 0.04 0.03 0.04 0.05 0.04 0.04 0.03 0.03 0.03 0.02
0.09 0.09 0.09 0.10 0.10 0.12 0.12 0.09 0.10 0.08 0.07 0.06 0.07 0.09 0.08 0.05 0.04 0.05 0.04 0.04 0.03 0.03 0.03 0.04 0.05 0.05 0.05 0.03 0.03 0.03 0.04 0.06 0.07 0.07 0.05 0.05 0.04 0.04 0.04 0.04 0.03 0.03 0.03
0.07 0.05 0.08 0.07 0.07 0.11 0.12 0.09 0.09 0.07 0.07 0.07 0.09 0.13 0.14 0.13 0.08 0.04 0.04 0.03 0.03 0.02 0.02 0.03 0.03 0.05 0.05 0.06 0.04 0.03 0.04 0.04 0.05 0.07 0.06 0.05 0.05 0.04 0.04 0.05 0.04 0.04 0.04
0.07 0.06 0.05 0.06 0.06 0.06 0.08 0.08 0.08 0.08 0.09 0.10 0.11 0.12 0.13 0.14 0.11 0.07 0.05 0.05 0.04 0.04 0.04 0.04 0.03 0.04 0.05 0.08 0.06 0.04 0.02 0.02 0.03 0.04 0.06 0.05 0.04 0.03 0.03 0.03 0.05 0.04 0.04
0.06 0.04 0.05 0.04 0.04 0.05 0.07 0.05 0.06 0.07 0.08 0.10 0.12 0.09 0.10 0.11 0.13 0.13 0.10 0.08 0.07 0.07 0.08 0.07 0.06 0.05 0.05 0.08 0.08 0.05 0.03 0.02 0.02 0.02 0.03 0.03 0.02 0.03 0.03 0.02 0.03 0.05 0.05
0.07 0.05 0.04 0.04 0.04 0.05 0.07 0.07 0.07 0.06 0.07 0.08 0.09 0.09 0.12 0.12 0.10 0.12 0.16 0.11 0.08 0.06 0.05 0.06 0.07 0.05 0.05 0.07 0.07 0.05 0.04 0.02 0.01 0.01 0.01 0.01 0.01 0.02 0.02 0.02 0.03 0.04 0.06
0.09 0.09 0.07 0.07 0.06 0.06 0.07 0.06 0.06 0.06 0.06 0.06 0.06 0.07 0.10 0.11 0.10 0.11 0.14 0.13 0.11 0.06 0.03 0.02 0.03 0.04 0.05 0.05 0.03 0.03 0.02 0.02 0.01 0.02 0.01 0.01 0.01 0.01 0.02 0.02 0.03 0.04 0.05
0.09 0.11 0.11 0.11 0.11 0.10 0.07 0.07 0.07 0.07 0.06 0.06 0.06 0.07 0.08 0.07 0.08 0.10 0.12 0.12 0.10 0.06 0.06 0.05 0.02 0.02 0.03 0.04 0.03 0.04 0.03 0.02 0.01 0.01 0.02 0.01 0.01 0.01 0.01 0.01 0.02 0.02 0.04
0.08 0.08 0.08 0.09 0.10 0.09 0.07 0.08 0.07 0.07 0.07 0.06 0.06 0.08 0.08 0.05 0.06 0.07 0.08 0.10 0.09 0.08 0.08 0.07 0.04 0.03 0.03 0.03 0.04 0.05 0.04 0.03 0.02 0.02 0.02 0.01 0.01 0.01 0.01 0.01 0.01 0.02 0.02
0.09 0.07 0.08 0.10 0.10 0.10 0.08 0.09 0.08 0.09 0.11 0.08 0.07 0.08 0.08 0.06 0.06 0.05 0.06 0.08 0.10 0.10 0.08 0.07 0.05 0.03 0.04 0.04 0.03 0.03 0.04 0.04 0.03 0.02 0.02 0.01 0.01 0.02 0.02 0.02 0.02 0.01 0.02
0.07 0.11 0.10 0.09 0.09 0.10 0.10 0.11 0.11 0.11 0.13 0.11 0.10 0.12 0.10 0.07 0.07 0.05 0.06 0.09 0.11 0.11 0.10 0.06 0.04 0.02 0.03 0.03 0.03 0.03 0.04 0.04 0.03 0.02 0.01 0.01 0.01 0.01 0.02 0.02 0.03 0.03 0.03
0.06 0.09 0.11 0.10 0.09 0.10 0.12 0.12 0.12 0.13 0.12 0.12 0.11 0.11 0.10 0.11 0.09 0.06 0.07 0.07 0.09 0.10 0.09 0.06 0.04 0.03 0.04 0.03 0.04 0.05 0.05 0.05 0.04 0.03 0.02 0.01 0.01 0.02 0.01 0.01 0.02 0.02 0.02
0.05 0.07 0.08 0.10 0.11 0.12 0.12 0.11 0.11 0.13 0.13 0.12 0.11 0.13 0.11 0.12 0.12 0.09 0.09 0.10 0.07 0.08 0.07 0.06 0.05 0.04 0.05 0.05 0.06 0.07 0.06 0.04 0.04 0.05 0.03 0.02 0.02 0.02 0.01 0.01 0.01 0.01 0.01
0.04 0.04 0.05 0.08 0.11 0.13 0.12 0.10 0.10 0.12 0.12 0.11 0.11 0.12 0.12 0.14 0.14 0.11 0.09 0.08 0.08 0.07 0.09 0.08 0.06 0.06 0.05 0.08 0.11 0.09 0.07 0.06 0.04 0.05 0.05 0.03 0.02 0.02 0.01 0.01 0.01 0.01 0.00
0.03 0.04 0.05 0.06 0.07 0.09 0.10 0.10 0.09 0.10 0.11 0.11 0.11 0.11 0.11 0.13 0.14 0.13 0.11 0.12 0.12 0.13 0.13 0.12 0.10 0.08 0.07 0.09 0.12 0.11 0.10 0.07 0.04 0.03 0.05 0.03 0.03 0.02 0.02 0.01 0.01 0.01 0.00
0.03 0.04 0.05 0.05 0.05 0.06 0.05 0.06 0.07 0.08 0.12 0.12 0.11 0.10 0.09 0.08 0.09 0.11 0.09 0.13 0.16 0.16 0.14 0.13 0.11 0.09 0.09 0.11 0.11 0.11 0.10 0.08 0.05 0.03 0.05 0.04 0.04 0.04 0.03 0.02 0.01 0.01 0.01
0.05 0.05 0.05 0.05 0.05 0.04 0.03 0.03 0.05 0.08 0.10 0.09 0.09 0.10 0.07 0.07 0.07 0.08 0.07 0.08 0.10 0.11 0.12 0.15 0.13 0.10 0.08 0.09 0.11 0.11 0.11 0.10 0.07 0.05 0.06 0.06 0.04 0.04 0.04 0.03 0.03 0.03 0.02
0.07 0.06 0.06 0.07 0.07 0.06 0.04 0.03 0.03 0.05 0.07 0.06 0.06 0.07 0.05 0.05 0.08 0.06 0.06 0.05 0.05 0.05 0.07 0.11 0.13 0.10 0.09 0.09 0.11 0.11 0.12 0.12 0.09 0.08 0.10 0.09 0.09 0.07 0.04 0.03 0.04 0.03 0.03
0.10 0.09 0.08 0.07 0.08 0.07 0.05 0.05 0.04 0.04 0.05 0.04 0.05 0.06 0.06 0.07 0.06 0.07 0.07 0.06 0.05 0.05 0.07 0.07 0.08 0.09 0.10 0.10 0.11 0.09 0.10 0.12 0.12 0.11 0.11 0.09 0.09 0.09 0.07 0.07 0.07 0.06 0.05
0.10 0.12 0.13 0.11 0.10 0.08 0.07 0.06 0.06 0.04 0.05 0.04 0.05 0.06 0.06 0.05 0.07 0.09 0.09 0.07 0.06 0.06 0.06 0.07 0.08 0.08 0.08 0.08 0.09 0.09 0.09 0.10 0.10 0.08 0.08 0.08 0.06 0.09 0.11 0.12 0.08 0.07 0.07
0.08 0.09 0.10 0.11 0.13 0.12 0.12 0.09 0.06 0.04 0.05 0.04 0.05 0.06 0.06 0.07 0.07 0.08 0.08 0.06 0.04 0.04 0.05 0.05 0.06 0.06 0.05 0.06 0.06 0.06 0.07 0.09 0.10 0.09 0.09 0.11 0.10 0.12 0.14 0.11 0.09 0.08 0.08
MSLP
1016.52 1016.60 1016.64 1016.69 1016.76 1016.87 1017.00 1017.13 1017.24 1017.28 1017.25 1017.13 1016.95 1016.73 1016.54 1016.42 1016.40 1016.51 1016.75 1017.08 1017.47 1017.89 1018.28 1018.62 1018.90 1019.12 1019.29 1019.44 1019.58 1019.72 1019.86 1020.02 1020.17 1020.33 1020.47 1020.60 1020.73 1020.85 1020.95 1021.05 1021.13 1021.19 1021.22
1016.82 1016.88 1016.90 1016.91 1016.94 1017.01 1017.10 1017.21 1017.32 1017.38 1017.38 1017.29 1017.14 1016.94 1016.74 1016.58 1016.49 1016.51 1016.64 1016.88 1017.19 1017.54 1017.91 1018.26 1018.57 1018.84 1019.07 1019.26 1019.42 1019.57 1019.71 1019.84 1019.97 1020.09 1020.21 1020.33 1020.45 1020.58 1020.70 1020.82 1020.92 1021.00 1021.04
1016.91 1016.98 1017.00 1017.01 1017.03 1017.09 1017.18 1017.30 1017.42 1017.51 1017.54 1017.49 1017.37 1017.19 1016.97 1016.76 1016.59 1016.51 1016.52 1016.63 1016.83 1017.11 1017.42 1017.76 1018.09 1018.41 1018.69 1018.93 1019.14 1019.32 1019.47 1019.59 1019.69 1019.79 1019.88 1019.99 1020.10 1020.24 1020.38 1020.53 1020.67 1020.78 1020.85
1016.73 1016.83 1016.88 1016.92 1016.97 1017.05 1017.17 1017.32 1017.47 1017.60 1017.67 1017.66 1017.57 1017.40 1017.17 1016.92 1016.67 1016.48 1016.36 1016.34 1016.41 1016.58 1016.82 1017.12 1017.46 1017.80 1018.13 1018.44 1018.70 1018.92 1019.09 1019.23 1019.33 1019.41 1019.49 1019.58 1019.70 1019.85 1020.01 1020.19 1020.37 1020.52 1020.63
1016.27 1016.40 1016.50 1016.61 1016.72 1016.86 1017.03 1017.22 1017.41 1017.57 1017.68 1017.72 1017.66 1017.51 1017.28 1017.00 1016.69 1016.40 1016.16 1016.00 1015.94 1015.99 1016.14 1016.38 1016.69 1017.05 1017.41 1017.77 1018.09 1018.37 1018.58 1018.74 1018.86 1018.95 1019.03 1019.13 1019.25 1019.41 1019.60 1019.81 1020.03 1020.22 1020.37
1015.56 1015.73 1015.91 1016.09 1016.28 1016.49 1016.72 1016.95 1017.18 1017.38 1017.53 1017.60 1017.58 1017.46 1017.25 1016.96 1016.62 1016.27 1015.94 1015.66 1015.48 1015.40 1015.44 1015.60 1015.86 1016.19 1016.58 1016.97 1017.34 1017.67 1017.94 1018.15 1018.30 1018.42 1018.52 1018.63 1018.77 1018.94 1019.15 1019.39 1019.63 1019.85 1020.04
1014.70 1014.92 1015.16 1015.41 1015.68 1015.96 1016.24 1016.52 1016.78 1017.00 1017.17 1017.28 1017.30 1017.23 1017.06 1016.81 1016.47 1016.10 1015.71 1015.36 1015.06 1014.87 1014.80 1014.85 1015.03 1015.32 1015.68 1016.08 1016.49 1016.86 1017.18 1017.45 1017.66 1017.82 1017.96 1018.10 1018.26 1018.45 1018.67 1018.91 1019.17 1019.41 1019.61
1013.82 1014.07 1014.36 1014.68 1015.01 1015.34 1015.65 1015.95 1016.22 1016.45 1016.64 1016.77 1016.84 1016.83 1016.73 1016.54 1016.26 1015.91 1015.52 1015.12 1014.75 1014.46 1014.27 1014.22 1014.29 1014.50 1014.81 1015.18 1015.58 1015.98 1016.35 1016.67 1016.94 1017.16 1017.35 1017.53 1017.72 1017.92 1018.15 1018.39 1018.64 1018.88 1019.09
1013.04 1013.30 1013.62 1013.97 1014.34 1014.69 1015.01 1015.30 1015.55 1015.78 1015.97 1016.13 1016.24 1016.30 1016.29 1016.19 1016.00 1015.72 1015.36 1014.96 1014.55 1014.19 1013.90 1013.73 1013.69 1013.79 1014.00 1014.31 1014.68 1015.07 1015.46 1015.83 1016.15 1016.43 1016.68 1016.91 1017.13 1017.35 1017.58 1017.81 1018.04 1018.26 1018.48
1012.46 1012.70 1013.02 1013.37 1013.73 1014.07 1014.37 1014.63 1014.85 1015.04 1015.22 1015.39 1015.54 1015.68 1015.76 1015.77 1015.69 1015.50 1015.21 1014.85 1014.44 1014.04 1013.67 1013.39 1013.23 1013.20 1013.29 1013.50 1013.80 1014.16 1014.54 1014.93 1015.29 1015.63 1015.94 1016.22 1016.48 1016.72 1016.94 1017.16 1017.37 1017.58 1017.79
1012.08 1012.29 1012.58 1012.91 1013.23 1013.53 1013.77 1013.97 1014.14 1014.29 1014.44 1014.61 1014.80 1014.98 1015.15 1015.27 1015.30 1015.22 1015.03 1014.73 1014.35 1013.92 1013.50 1013.14 1012.85 1012.69 1012.66 1012.75 1012.95 1013.24 1013.59 1013.97 1014.37 1014.75 1015.11 1015.45 1015.74 1016.01 1016.25 1016.46 1016.66 1016.85 1017.05
1011.88 1012.05 1012.29 1012.56 1012.82 1013.05 1013.23 1013.37 1013.47 1013.56 1013.67 1013.82 1014.02 1014.24 1014.47 1014.67 1014.80 1014.82 1014.72 1014.50 1014.17 1013.76 1013.31 1012.88 1012.50 1012.22 1012.06 1012.02 1012.12 1012.32 1012.62 1012.98 1013.38 1013.80 1014.21 1014.59 1014.94 1015.24 1015.49 1015.71 1015.91 1016.09 1016.29
1011.78 1011.90 1012.08 1012.28 1012.47 1012.63 1012.73 1012.80 1012.84 1012.87 1012.94 1013.06 1013.23 1013.46 1013.72 1013.97 1014.16 1014.26 1014.25 1014.10 1013.82 1013.44 1013.00 1012.53 1012.09 1011.72 1011.45 1011.31 1011.30 1011.41 1011.65 1011.97 1012.37 1012.80 1013.25 1013.67 1014.06 1014.40 1014.69 1014.93 1015.13 1015.32 1015.53
1011.73 1011.79 1011.90 1012.03 1012.15 1012.23 1012.28 1012.28 1012.26 1012.24 1012.26 1012.33 1012.47 1012.67 1012.92 1013.17 1013.38 1013.53 1013.56 1013.47 1013.26 1012.93 1012.51 1012.05 1011.58 1011.16 1010.82 1010.59 1010.49 1010.53 1010.70 1010.98 1011.36 1011.80 1012.27 1012.73 1013.16 1013.54 1013.86 1014.12 1014.35 1014.56 1014.78
1011.67 1011.67 1011.72 1011.78 1011.84 1011.87 1011.86 1011.82 1011.76 1011.70 1011.66 1011.68 1011.76 1011.91 1012.10 1012.31 1012.51 1012.65 1012.71 1012.66 1012.49 1012.21 1011.84 1011.42 1010.96 1010.53 1010.16 1009.88 1009.73 1009.70 1009.81 1010.06 1010.41 1010.84 1011.32 1011.80 1012.25 1012.66 1013.01 1013.31 1013.56 1013.79 1014.04
1011.60 1011.55 1011.55 1011.56 1011.57 1011.56 1011.52 1011.45 1011.36 1011.27 1011.19 1011.15 1011.17 1011.23 1011.34 1011.48 1011.61 1011.71 1011.76 1011.72 1011.59 1011.37 1011.06 1010.69 1010.28 1009.88 1009.51 1009.22 1009.03 1008.97 1009.04 1009.25 1009.57 1009.98 1010.44 1010.92 1011.39 1011.81 1012.18 1012.49 1012.77 1013.03 1013.30
1011.55 1011.47 1011.42 1011.39 1011.37 1011.34 1011.29 1011.21 1011.11 1011.00 1010.89 1010.80 1010.74 1010.72 1010.73 1010.77 1010.81 1010.85 1010.85 1010.80 1010.69 1010.50 1010.26 1009.95 1009.61 1009.25 1008.92 1008.65 1008.46 1008.38 1008.42 1008.59 1008.87 1009.25 1009.68 1010.14 1010.58 1011.00 1011.37 1011.68 1011.97 1012.25 1012.55
1011.57 1011.45 1011.37 1011.32 1011.28 1011.24 1011.19 1011.12 1011.03 1010.91 1010.78 1010.65 1010.53 1010.42 1010.33 1010.26 1010.21 1010.16 1010.10 1010.02 1009.91 1009.75 1009.55 1009.30 1009.02 1008.73 1008.45 1008.20 1008.02 1007.93 1007.95 1008.08 1008.32 1008.64 1009.03 1009.44 1009.85 1010.24 1010.58 1010.89 1011.17 1011.46 1011.78
1011.66 1011.53 1011.43 1011.36 1011.31 1011.27 1011.23 1011.17 1011.09 1010.99 1010.85 1010.69 1010.53 1010.35 1010.18 1010.02 1009.88 1009.75 1009.62 1009.50 1009.37 1009.22 1009.04 1008.83 1008.59 1008.34 1008.10 1007.88 1007.70 1007.61 1007.60 1007.69 1007.87 1008.14 1008.47 1008.82 1009.17 1009.51 1009.82 1010.10 1010.38 1010.66 1011.00
1011.82 1011.68 1011.57 1011.49 1011.43 1011.40 1011.36 1011.32 1011.26 1011.17 1011.04 1010.88 1010.69 1010.48 1010.25 1010.03 1009.82 1009.62 1009.43 1009.26 1009.10 1008.93 1008.75 1008.55 1008.34 1008.11 1007.87 1007.66 1007.48 1007.36 1007.31 1007.36 1007.49 1007.69 1007.94 1008.23 1008.53 1008.81 1009.08 1009.34 1009.60 1009.89 1010.24
1011.99 1011.84 1011.72 1011.63 1011.57 1011.53 1011.51 1011.48 1011.44 1011.36 1011.26 1011.11 1010.93 1010.71 1010.47 1010.22 1009.97 1009.72 1009.49 1009.28 1009.08 1008.88 1008.67 1008.46 1008.22 1007.98 1007.73 1007.49 1007.28 1007.12 1007.03 1007.01 1007.08 1007.21 1007.40 1007.63 1007.87 1008.11 1008.35 1008.59 1008.85 1009.16 1009.53
1012.09 1011.94 1011.81 1011.72 1011.65 1011.61 1011.58 1011.56 1011.53 1011.49 1011.41 1011.30 1011.14 1010.95 1010.73 1010.48 1010.23 1009.97 1009.72 1009.47 1009.23 1008.99 1008.74 1008.48 1008.20 1007.90 1007.61 1007.32 1007.05 1006.83 1006.68 1006.59 1006.59 1006.66 1006.79 1006.96 1007.16 1007.38 1007.61 1007.87 1008.15 1008.48 1008.89
1012.05 1011.91 1011.78 1011.68 1011.61 1011.56 1011.53 1011.51 1011.49 1011.47 1011.43 1011.35 1011.24 1011.10 1010.92 1010.71 1010.48 1010.23 1009.98 1009.71 1009.44 1009.15 1008.85 1008.53 1008.19 1007.82 1007.45 1007.09 1006.75 1006.45 1006.22 1006.06 1005.98 1005.99 1006.06 1006.20 1006.38 1006.60 1006.85 1007.14 1007.48 1007.87 1008.33
1011.86 1011.73 1011.60 1011.49 1011.41 1011.35 1011.32 1011.30 1011.29 1011.29 1011.27 1011.24 1011.18 1011.09 1010.97 1010.81 1010.62 1010.41 1010.16 1009.90 1009.60 1009.28 1008.93 1008.55 1008.13 1007.69 1007.24 1006.79 1006.36 1005.97 1005.65 1005.41 1005.25 1005.19 1005.22 1005.33 1005.51 1005.75 1006.04 1006.39 1006.81 1007.28 1007.83
1011.54 1011.41 1011.29 1011.19 1011.11 1011.05 1011.01 1010.99 1010.98 1010.99 1011.00 1011.00 1010.98 1010.94 1010.86 1010.75 1010.61 1010.42 1010.20 1009.94 1009.64 1009.30 1008.91 1008.48 1008.00 1007.49 1006.96 1006.42 1005.90 1005.42 1005.00 1004.67 1004.43 1004.29 1004.27 1004.35 1004.53 1004.80 1005.15 1005.58 1006.09 1006.66 1007.30
1011.16 1011.04 1010.94 1010.85 1010.77 1010.72 1010.68 1010.66 1010.66 1010.67 1010.68 1010.70 1010.70 1010.68 1010.63 1010.55 1010.44 1010.28 1010.08 1009.83 1009.53 1009.18 1008.78 1008.31 1007.80 1007.24 1006.65 1006.04 1005.43 1004.86 1004.34 1003.90 1003.56 1003.34 1003.25 1003.29 1003.46 1003.74 1004.15 1004.66 1005.26 1005.94 1006.68
Thickness
5780 5779 5777 5776 5775 5775 5774 5772 5772 5771 5771 5771 5771 5772 5773 5773 5773 5771 5768 5766 5764 5763 5761 5760 5758 5756 5754 5753 5752 5751 5749 5748 5746 5745 5744 5742 5741 5739 5737 5736 5734 5733 5732
5782 5780 5778 5777 5776 5776 5775 5773 5773 5772 5771 5772 5772 5773 5773 5773 5772 5771 5768 5767 5765 5764 5763 5761 5759 5757 5755 5754 5753 5752 5750 5749 5747 5746 5744 5743 5741 5740 5738 5737 5735 5734 5732
5782 5781 5779 5777 5777 5777 5775 5774 5772 5772 5772 5772 5772 5773 5773 5773 5773 5772 5770 5769 5767 5765 5763 5762 5760 5759 5757 5755 5754 5753 5751 5750 5748 5747 5745 5744 5742 5741 5739 5738 5736 5735 5733
5783 5781 5780 5779 5778 5777 5776 5775 5773 5772 5771 5771 5770 5772 5774 5774 5774 5774 5772 5770 5769 5768 5765 5763 5762 5760 5758 5757 5755 5754 5753 5751 5750 5748 5747 5745 5743 5742 5740 5739 5737 5736 5734
5783 5782 5781 5780 5779 5778 5777 5776 5774 5773 5770 5769 5770 5772 5774 5775 5775 5776 5774 5773 5772 5770 5768 5766 5764 5762 5760 5758 5757 5756 5754 5753 5751 5750 5748 5746 5744 5743 5741 5740 5738 5737 5735
5785 5783 5782 5781 5780 5778 5776 5776 5774 5773 5771 5770 5772 5772 5773 5776 5776 5776 5775 5774 5774 5772 5770 5768 5766 5763 5762 5760 5759 5757 5756 5754 5753 5751 5749 5748 5746 5744 5742 5741 5739 5738 5736
5786 5784 5784 5781 5779 5777 5777 5776 5774 5771 5770 5772 5768 5766 5771 5776 5776 5776 5776 5775 5775 5774 5772 5770 5768 5766 5764 5762 5760 5759 5757 5756 5754 5752 5751 5749 5747 5745 5744 5742 5740 5739 5737
5786 5785 5783 5781 5780 5778 5776 5775 5773 5770 5770 5772 5766 5760 5757 5762 5771 5777 5776 5775 5775 5775 5773 5772 5771 5769 5767 5765 5763 5760 5759 5757 5755 5754 5752 5750 5748 5746 5745 5743 5741 5739 5737
5787 5786 5785 5783 5781 5779 5776 5775 5775 5771 5768 5770 5771 5764 5755 5753 5761 5770 5774 5775 5775 5774 5773 5773 5773 5771 5769 5767 5765 5762 5760 5758 5757 5755 5753 5751 5749 5747 5745 5743 5742 5740 5738
5788 5787 5785 5783 5781 5780 5778 5777 5777 5774 5770 5767 5769 5770 5768 5765 5757 5756 5765 5771 5773 5773 5773 5773 5773 5772 5770 5768 5766 5764 5761 5759 5758 5756 5753 5751 5749 5747 5745 5743 5742 5740 5738
5789 5788 5786 5783 5781 5780 5779 5778 5777 5775 5773 5770 5768 5768 5767 5767 5765 5756 5754 5760 5766 5770 5772 5772 5771 5771 5770 5769 5767 5765 5762 5759 5758 5756 5754 5752 5750 5747 5745 5743 5742 5740 5738
5789 5789 5787 5785 5783 5781 5780 5779 5777 5775 5773 5772 5770 5769 5766 5763 5761 5760 5755 5756 5757 5763 5769 5771 5770 5770 5769 5768 5766 5764 5761 5759 5757 5755 5753 5751 5749 5747 5745 5743 5741 5740 5738
5789 5788 5788 5785 5783 5782 5781 5779 5777 5775 5773 5771 5769 5769 5768 5767 5766 5763 5757 5755 5755 5760 5764 5767 5769 5769 5768 5766 5764 5762 5759 5757 5755 5753 5751 5749 5747 5746 5744 5742 5741 5739 5737
5791 5791 5788 5785 5784 5782 5780 5778 5776 5774 5773 5771 5770 5769 5767 5767 5767 5765 5760 5755 5750 5751 5756 5759 5765 5766 5765 5763 5762 5759 5756 5754 5753 5751 5749 5747 5745 5744 5742 5740 5739 5737 5735
5792 5791 5788 5785 5783 5781 5779 5776 5774 5772 5772 5770 5769 5767 5766 5766 5766 5765 5763 5759 5750 5743 5745 5754 5758 5763 5762 5760 5758 5756 5754 5752 5749 5748 5746 5744 5742 5741 5739 5738 5736 5735 5733
5790 5788 5786 5783 5781 5779 5777 5774 5772 5771 5769 5768 5767 5765 5764 5763 5763 5762 5761 5760 5757 5750 5744 5751 5755 5759 5759 5758 5755 5753 5751 5749 5746 5744 5743 5741 5739 5738 5736 5735 5733 5731 5730
5787 5784 5782 5780 5777 5776 5774 5771 5770 5769 5767 5765 5764 5762 5760 5759 5757 5757 5757 5756 5754 5751 5744 5748 5752 5754 5753 5752 5750 5749 5748 5745 5743 5741 5740 5738 5736 5734 5732 5731 5729 5727 5726
5784 5782 5779 5777 5774 5773 5771 5769 5766 5766 5763 5761 5760 5758 5757 5756 5754 5752 5751 5750 5749 5749 5745 5742 5745 5747 5747 5748 5746 5745 5744 5743 5741 5739 5737 5735 5733 5730 5728 5726 5725 5723 5721
5779 5778 5776 5772 5771 5769 5768 5767 5765 5762 5761 5759 5757 5754 5752 5750 5748 5747 5746 5744 5745 5746 5744 5740 5740 5742 5742 5743 5741 5740 5739 5738 5736 5735 5732 5730 5728 5726 5724 5722 5720 5718 5716
5774 5773 5771 5769 5767 5765 5764 5762 5760 5757 5756 5755 5753 5750 5748 5746 5743 5742 5741 5740 5739 5737 5737 5735 5734 5734 5734 5735 5733 5730 5728 5729 5729 5729 5727 5724 5722 5720 5718 5716 5715 5712 5710
5770 5768 5765 5764 5763 5760 5758 5756 5754 5753 5750 5748 5747 5746 5743 5741 5740 5738 5737 5735 5733 5730 5728 5727 5726 5725 5724 5723 5722 5722 5720 5720 5721 5722 5719 5718 5716 5713 5712 5710 5708 5707 5705
5765 5763 5760 5757 5755 5755 5752 5750 5748 5746 5744 5741 5739 5738 5737 5736 5734 5733 5731 5730 5728 5724 5722 5720 5719 5717 5717 5717 5716 5714 5712 5709 5708 5714 5711 5710 5710 5707 5707 5705 5704 5702 5699
5757 5755 5753 5751 5748 5745 5744 5742 5741 5739 5737 5735 5732 5730 5730 5730 5727 5726 5724 5723 5721 5720 5718 5716 5713 5713 5712 5712 5709 5706 5704 5702 5701 5703 5702 5700 5702 5700 5701 5700 5698 5696 5694
5749 5747 5745 5744 5741 5739 5736 5734 5732 5731 5730 5728 5726 5724 5721 5720 5719 5717 5716 5715 5714 5712 5711 5710 5709 5709 5708 5706 5704 5701 5699 5696 5696 5695 5694 5690 5693 5692 5694 5692 5691 5689 5687
5741 5739 5738 5737 5734 5731 5728 5726 5723 5722 5721 5720 5719 5717 5715 5713 5711 5709 5706 5705 5704 5703 5704 5703 5703 5701 5700 5698 5695 5691 5688 5685 5683 5685 5686 5682 5684 5684 5683 5682 5681 5680 5678
5734 5732 5730 5728 5726 5723 5721 5718 5714 5714 5712 5711 5710 5709 5706 5704 5701 5699 5697 5695 5693 5694 5693 5693 5691 5691 5690 5688 5686 5682 5680 5676 5675 5675 5678 5675 5674 5673 5670 5673 5671 5670 5668